Location: York
(31.8935°S, 116.7682°E)
Time: 12:51:16
(UTC+08:00)

N. Korean satellite - Visible Passes

Search period start: 05 August 2021 00:00
Search period end: 15 August 2021 00:00
Orbit: 451 x 498 km, 97.2° (Epoch: 04 August)

Date Brightness Start Highest point End Pass type
(mag) Time Alt. Az. Time Alt. Az. Time Alt. Az.
06 Aug 9.6 18:21:51 10° SSW 18:24:05 16° WSW 18:26:19 10° WNW visible
09 Aug 9.9 18:33:29 10° SW 18:34:43 11° WSW 18:35:56 10° W visible
10 Aug 9.0 18:04:21 10° SSW 18:07:26 26° WSW 18:10:31 10° NW visible
13 Aug 9.5 18:15:24 10° SSW 18:18:03 19° WSW 18:20:41 10° WNW visible
